Weather Roundup
Issued by NWS Springfield, MO

Home | Current Version | Previous Version | Text Only | Print | Product List | Glossary On
Versions: 1 2 3 4 5 6 7 8 9 10 11 12 13 14 15 16 17 18 19 20 21 22 23 24 25 26 27 28 29 30 31 32 33 34 35 36 37 38 39 40 41 42 43 44 45 46 47 48 49 50
000
NZUS99 KSGF 242259
HRRSGF

HOURLY WEATHER
NATIONAL WEATHER SERVICE SPRINGFIELD MO
600 PM CDT FRI APR 24 2015

......SGF CWA......

CITY           SKY/WX    TMP DP  RH WIND       PRES   REMARKS
SPRINGFIELD    CLOUDY    57  51  80 SE14      29.72F
JOPLIN         CLOUDY    65  56  72 S16       29.66F
WEST PLAINS    CLOUDY    53  47  79 SE13G20   29.83F
ROLLA          CLOUDY    57  48  72 SE15G23   29.74F
OSAGE BEACH    CLOUDY    61  48  63 S14       29.73F
BRANSON        CLOUDY    55  54  94 SE15G25   29.77F

......SURROUNDING SGF CWA......

CITY           SKY/WX    TMP DP  RH WIND       PRES   REMARKS
CHANUTE        CLOUDY    69  60  73 S23G30    29.61F
PARSONS        CLOUDY    69  61  75 S12G20    29.64R
COFFEYVILLE    CLOUDY    67  60  78 S18G24    29.64S
EMPORIA        PTSUNNY   71  60  68 S20G28    29.55F
SILOAM SPRINGS CLOUDY    63  54  72 S10       29.71F
HARRISON AR    LGT RAIN  60  57  89 E6        29.79R
NEAR YELLVILLE CLOUDY    57  54  88 E3        29.78F

......KANSAS AND MISSOURI......

CITY           SKY/WX    TMP DP  RH WIND       PRES   REMARKS
KANSAS CTY INT CLOUDY    62  54  74 SE9       29.64F
DOWNTOWN KC    CLOUDY    65  54  67 S7        29.63F
COLUMBIA       CLOUDY    61  49  64 S16       29.72F
SEDALIA        CLOUDY    63  52  67 S13       29.70F
ST JOSEPH      CLOUDY    62  54  74 SE13      29.63F
ST LOUIS       CLOUDY    63  40  42 S17G28    29.82F
SPIRIT OF STL  CLOUDY    60  43  53 SE9G16    29.79F
KIRKSVILLE     CLOUDY    64  51  62 S6        29.70F
WICHITA        PTSUNNY   76  61  59 S29G35    29.49F
TOPEKA         CLOUDY    63  55  75 E9        29.59F
OLATHE         CLOUDY    63  55  75 SE9       29.63F

......TENNESSEE......

CITY           SKY/WX    TMP DP  RH WIND       PRES   REMARKS
MEMPHIS        LGT RAIN  58  53  84 SE8       29.88F
NASHVILLE      CLOUDY    62  38  40 S6        29.96F

......ARKANSAS.......

CITY           SKY/WX    TMP DP  RH WIND       PRES   REMARKS
FAYETTEVILLE   CLOUDY    61  58  90 S7        29.72F
FT SMITH       LGT RAIN  62  59  90 E7        29.76R FOG
LITTLE ROCK    HVY RAIN  60  56  86 SE3       29.87F FOG

......OKLAHOMA.......

CITY           SKY/WX    TMP DP  RH WIND       PRES   REMARKS
TULSA          CLOUDY    69  60  73 S20G32    29.63F
PONCA CITY     CLOUDY    72  62  71 S28G38    29.51F
MCALESTER      LGT RAIN  64  61  90 SE7       29.71F
OKLAHOMA CITY  CLOUDY    70  61  73 S18G25    29.64F

......IOWA............

CITY           SKY/WX    TMP DP  RH WIND       PRES   REMARKS
DES MOINES     CLOUDY    56  49  77 E9G18     29.69F
QUAD CITIES    LGT RAIN  50  42  74 E12       29.81F

......ILLINOIS........

CITY           SKY/WX    TMP DP  RH WIND       PRES   REMARKS
QUINCY         CLOUDY    64  38  38 S13       29.74F
CHICAGO        CLOUDY    49  26  41 NE12      29.93S




USA.gov is the U.S. government's official web portal to all federal, state and local government web resources and services.